Weather in Silverstone

United Kingdom     52°05′25″N   1°01′23″W
temp.,
°C
wind,
m/s
gust,
m/s
humid.,
%
clouds,
%
prec.,
mm/h
press.,
hPa
HPBL,
m
21 april, wed
wed2101:00+6ne229399 0.1 101819
04:00+6ne3597100 0.0 101993
07:00+6ne499771 0.1 1020248
10:00+10ne798275 0.0 1022931
13:00+10ne6874100 0.1 10231109
16:00+10ene676799 0.0 10231231
19:00+8ne687040 0.0 1024599
22:00+3ne512855 0.0 1026324
22 april, thu
thu2201:000ene37955 0.0 1026141
04:00−1ne36955 0.0 1027106
07:000ne37915 0.0 1028170
10:00+7ene45635 0.0 1029643
13:00+11e45515 0.0 10281021
16:00+12ene45530 0.0 10281194
19:00+10ene35744 0.0 1028114
22:00+4e33915 0.0 103038
23 april, fri
fri2301:00+1ese22905 0.0 103019
04:000e22880 0.0 103012
07:00+2ene35800 0.0 1031102
10:00+9e46600 0.0 1030525
13:00+13e56520 0.0 10301029
16:00+13ese56520 0.0 10291136
19:00+10ese47710 0.0 1029237
22:00+3ese35760 0.0 103065
24 april, sat
sat2401:00+1ene357957 0.0 103071
04:00+1e368481 0.0 1030101
07:00+2ene398689 0.0 1030200
10:00+10e586785 0.0 1029678
13:00+13e6862100 0.0 10291298
16:00+13e6862100 0.0 10281355
19:00+10e5975100 0.0 1028524
22:00+6e41186100 0.0 1029304
25 april, sun
sun2501:00+4ene41185100 0.0 1029279
04:00+3ene41097100 0.0 1028276
07:00+4ene51091100 0.0 1027342
10:00+8ene6966100 0.0 1027662
13:00+11ene685799 0.0 10251070
16:00+12ene67544 0.0 10231181
19:00+9ene596818 0.0 1021540
22:00+3ne38909 0.0 1021144